Date,TemperatureHighF,TemperatureAvgF,TemperatureLowF,DewpointHighF,DewpointAvgF,DewpointLowF,HumidityHigh,HumidityAvg,HumidityLow,PressureMaxIn,PressureMinIn,WindSpeedMaxMPH,WindSpeedAvgMPH,GustSpeedMaxMPH,PrecipitationSumIn
2013-1-1,30.0,13.3,3.0,18.0,2.9,-2.0,83,66,35,0.00,40.00,7,3,14,0.02
2013-1-2,37.0,17.0,4.0,7.0,1.1,-3.0,78,53,25,0.00,40.00,6,3,12,0.00
2013-1-3,30.0,15.5,2.0,5.0,-0.2,-5.0,80,52,34,0.00,40.00,11,6,22,0.00
2013-1-4,36.0,18.2,7.0,4.0,-0.6,-4.0,75,47,20,0.00,40.00,6,4,10,0.00
2013-1-5,44.0,21.9,7.0,5.0,0.8,-4.0,73,45,16,0.00,40.00,6,2,9,0.00
2013-1-6,43.0,26.8,15.0,6.0,2.1,-1.0,48,35,19,0.00,40.00,10,6,16,0.00
2013-1-7,38.0,27.3,20.0,11.0,5.8,1.0,53,40,28,0.00,40.00,10,6,17,0.00
2013-1-8,41.0,31.0,20.0,18.0,11.8,-1.0,61,45,30,0.00,40.00,10,6,19,0.00
2013-1-9,49.0,35.0,22.0,18.0,15.5,13.0,74,47,25,0.00,40.00,8,5,17,0.00
2013-1-10,38.0,33.3,28.0,21.0,15.8,12.0,73,49,38,0.00,40.00,15,10,31,0.00
2013-1-11,23.0,13.6,0.0,21.0,2.0,-8.0,91,62,33,0.00,40.00,15,9,30,0.00
2013-1-12,22.0,6.5,-4.0,5.0,-3.0,-10.0,82,66,38,0.00,40.00,6,2,13,0.00
2013-1-13,24.0,9.7,-1.0,2.0,-1.4,-6.0,82,62,33,0.00,40.00,6,3,11,0.00
2013-1-14,16.0,6.2,-2.0,-2.0,-10.5,-15.0,71,47,27,0.00,40.00,7,5,14,0.00
2013-1-15,26.0,11.4,1.0,2.0,-6.0,-14.0,69,45,34,0.00,40.00,9,5,19,0.00
2013-1-16,40.0,22.6,7.0,13.0,6.9,-1.0,69,52,32,0.00,40.00,8,3,14,0.00
2013-1-17,38.0,23.1,13.0,12.0,8.5,6.0,76,55,34,0.00,40.00,8,5,14,0.00
2013-1-18,48.0,29.2,18.0,17.0,12.8,9.0,69,53,28,0.00,40.00,7,5,10,0.00
2013-1-19,52.0,29.5,22.0,14.0,11.1,1.0,69,50,16,0.00,40.00,6,4,9,0.00
2013-1-20,51.0,29.2,20.0,12.0,5.0,-2.0,59,38,14,0.00,40.00,5,3,10,0.00
2013-1-21,53.0,31.4,21.0,12.0,3.4,-3.0,56,33,10,0.00,40.00,5,3,9,0.00
2013-1-22,58.0,34.9,23.0,15.0,9.1,2.0,60,37,12,0.00,40.00,6,4,9,0.00
2013-1-23,55.0,34.9,25.0,15.0,10.9,3.0,60,38,15,0.00,40.00,6,3,10,0.00
2013-1-24,49.0,39.7,36.0,34.0,23.1,14.0,91,55,30,0.00,40.00,7,3,13,0.00
2013-1-25,40.0,37.4,35.0,39.0,36.0,34.0,98,95,91,0.00,40.00,5,3,10,0.03
2013-1-26,40.0,37.0,35.0,39.0,35.9,34.0,99,97,92,0.00,40.00,12,6,20,1.35
2013-1-27,43.0,37.1,33.0,38.0,35.3,32.0,99,93,70,0.00,40.00,12,9,25,0.25
2013-1-28,35.0,27.1,15.0,33.0,23.9,7.0,97,89,48,0.00,40.00,15,8,28,0.18
2013-1-29,28.0,17.4,5.0,16.0,10.2,0.0,88,74,50,0.00,40.00,9,4,19,0.10
2013-1-30,38.0,23.9,9.0,22.0,14.6,5.0,87,68,51,0.00,40.00,9,5,17,0.01
2013-1-31,47.0,34.4,21.0,26.0,21.0,18.0,93,62,35,0.00,40.00,5,2,9,0.01
2013-2-1,48.0,32.2,22.0,26.0,19.5,13.0,91,64,24,0.00,40.00,6,2,11,0.01
2013-2-2,49.0,34.7,25.0,22.0,17.2,13.0,76,51,25,0.00,40.00,6,4,9,0.00
2013-2-3,38.0,32.4,26.0,30.0,22.1,6.0,94,68,37,0.00,40.00,5,2,12,0.00
2013-2-4,51.0,34.6,25.0,26.0,21.4,16.0,92,64,25,0.00,40.00,6,3,10,0.00
2013-2-5,52.0,36.4,24.0,22.0,17.3,10.0,79,49,22,0.00,40.00,6,3,11,0.00
2013-2-6,49.0,37.6,30.0,27.0,22.2,18.0,81,55,38,0.00,40.00,7,5,14,0.00
2013-2-7,47.0,35.3,24.0,24.0,18.5,14.0,79,54,29,0.00,40.00,7,4,12,0.00
2013-2-8,44.0,35.2,27.0,24.0,16.4,5.0,77,48,26,0.00,40.00,17,10,41,0.00
2013-2-9,28.0,23.3,19.0,21.0,16.4,8.0,91,76,45,0.00,40.00,10,7,20,0.03
2013-2-10,23.0,19.9,12.0,20.0,17.0,9.0,90,88,86,0.00,40.00,11,7,20,0.01
2013-2-11,30.0,19.1,4.0,21.0,14.8,-1.0,89,83,70,0.00,40.00,5,3,9,0.24
2013-2-12,34.0,19.8,11.0,16.0,11.1,7.0,88,71,41,0.00,40.00,5,3,11,0.10
2013-2-13,44.0,26.6,13.0,19.0,13.1,7.0,76,58,36,0.00,40.00,7,4,13,0.01
2013-2-14,42.0,29.8,17.0,19.0,15.8,12.0,82,58,35,0.00,40.00,9,4,20,0.01
2013-2-15,47.0,32.4,23.0,15.0,9.1,5.0,67,41,19,0.00,40.00,7,4,14,0.00
2013-2-16,52.0,33.7,19.0,14.0,8.2,4.0,56,38,17,0.00,40.00,6,3,10,0.00
2013-2-17,48.0,38.5,26.0,12.0,7.6,3.0,44,28,17,0.00,40.00,14,8,25,0.00
2013-2-18,45.0,30.5,19.0,14.0,0.0,-11.0,55,30,9,0.00,40.00,7,4,14,0.00
2013-2-19,45.0,34.6,25.0,11.0,5.1,-2.0,36,29,21,0.00,40.00,10,6,20,0.00
2013-2-20,39.0,28.0,16.0,24.0,16.8,9.0,90,65,39,0.00,40.00,9,5,19,0.10
2013-2-21,38.0,27.1,21.0,23.0,19.3,13.0,92,74,44,0.00,40.00,8,6,18,0.09
2013-2-22,36.0,21.9,9.0,14.0,6.4,3.0,84,55,27,0.00,40.00,9,4,17,0.00
2013-2-23,42.0,26.3,15.0,19.0,11.9,6.0,86,56,34,0.00,40.00,12,7,26,0.00
2013-2-24,24.0,18.6,10.0,16.0,7.4,-1.0,83,62,46,0.00,40.00,10,6,27,0.00
2013-2-25,43.0,28.6,16.0,9.0,4.6,0.0,65,39,17,0.00,40.00,9,5,15,0.05
2013-2-26,35.0,25.5,18.0,9.0,1.6,-8.0,67,37,16,0.00,40.00,8,6,20,0.04
2013-2-27,38.0,24.1,15.0,4.0,0.1,-10.0,54,37,12,0.00,40.00,6,4,12,0.00
2013-2-28,45.0,30.6,21.0,5.0,-0.4,-7.0,36,27,15,0.00,40.00,7,4,15,0.00
2013-3-1,50.0,37.7,27.0,21.0,15.9,4.0,68,42,31,0.00,40.00,9,5,19,0.00
2013-3-2,59.0,43.3,29.0,23.0,20.0,16.0,68,42,21,0.00,40.00,6,4,11,0.00
2013-3-3,55.0,44.0,37.0,27.0,20.4,15.0,60,40,28,0.00,40.00,13,9,26,0.00
2013-3-4,51.0,40.2,31.0,29.0,21.3,15.0,61,47,34,0.00,40.00,8,5,16,0.00
2013-3-5,55.0,39.5,28.0,16.0,12.1,8.0,52,34,21,0.00,40.00,8,5,15,0.00
2013-3-6,56.0,44.0,35.0,22.0,16.3,11.0,50,34,20,0.00,40.00,14,8,27,0.00
2013-3-7,57.0,43.8,33.0,20.0,15.3,7.0,55,34,14,0.00,40.00,11,8,23,0.00
2013-3-8,39.0,34.0,23.0,35.0,25.9,18.0,96,75,42,0.00,40.00,11,8,22,0.17
2013-3-9,33.0,26.3,22.0,30.0,24.0,20.0,93,91,88,0.00,40.00,10,8,24,0.20
2013-3-10,43.0,33.5,25.0,26.0,20.6,15.0,93,62,37,0.00,40.00,11,7,22,0.09
2013-3-11,53.0,36.6,22.0,24.0,19.8,13.0,90,55,25,0.00,40.00,6,3,13,0.02
2013-3-12,57.0,42.8,30.0,26.0,22.8,19.0,72,47,29,0.00,40.00,9,4,16,0.00
2013-3-13,61.0,45.0,31.0,27.0,23.5,16.0,73,46,25,0.00,40.00,6,4,12,0.00
2013-3-14,70.0,49.6,35.0,26.0,17.8,7.0,56,32,9,0.00,40.00,5,4,13,0.00
2013-3-15,68.0,54.6,42.0,23.0,19.3,16.0,41,26,15,0.00,40.00,9,5,18,0.00
2013-3-16,63.0,49.5,39.0,25.0,21.6,19.0,50,34,20,0.00,40.00,8,5,20,0.00
2013-3-17,58.0,46.7,39.0,27.0,15.9,2.0,62,35,10,0.00,40.00,12,7,28,0.00
2013-3-18,55.0,42.6,29.0,12.0,5.2,-1.0,45,23,10,0.00,40.00,9,5,18,0.00
2013-3-19,54.0,42.6,32.0,21.0,14.0,0.0,62,32,17,0.00,40.00,8,4,19,0.00
2013-3-20,56.0,44.2,32.0,22.0,18.9,15.0,60,37,26,0.00,40.00,14,7,27,0.00
2013-3-21,57.0,44.7,30.0,27.0,16.7,3.0,78,37,14,0.00,40.00,12,6,29,0.00
2013-3-22,56.0,42.8,29.0,9.0,-4.9,-34.0,27,14,2,0.00,40.00,17,9,35,0.00
2013-3-23,37.0,26.1,17.0,6.0,-6.2,-18.0,50,27,10,0.00,40.00,9,6,20,0.00
2013-3-24,45.0,30.2,16.0,1.0,-5.9,-14.0,37,21,13,0.00,40.00,9,5,23,0.00
2013-3-25,53.0,37.5,26.0,10.0,4.2,0.0,33,25,17,0.00,40.00,8,5,16,0.00
2013-3-26,58.0,45.0,34.0,12.0,9.0,6.0,30,24,14,0.00,40.00,12,7,22,0.00
2013-3-27,62.0,46.9,33.0,14.0,10.3,3.0,41,25,10,0.00,40.00,10,5,21,0.00
2013-3-28,61.0,55.2,49.0,20.0,17.5,12.0,30,23,16,0.00,40.00,10,8,22,0.00
2013-3-29,65.0,50.0,35.0,27.0,19.7,14.0,61,33,14,0.00,40.00,7,4,17,0.00
2013-3-30,64.0,49.5,37.0,26.0,19.9,-99.9,54,35,14,0.00,40.00,9,3,16,0.00
2013-3-31,67.0,51.8,37.0,28.0,24.0,18.0,61,37,16,0.00,40.00,8,4,21,0.00
2013-4-1,60.0,48.8,39.0,27.0,17.8,-3.0,52,32,10,0.00,40.00,16,8,31,0.00
2013-4-2,51.0,41.0,28.0,27.0,23.2,21.0,79,51,31,0.00,40.00,8,5,23,0.00
2013-4-3,60.0,45.3,31.0,32.0,23.2,12.0,88,50,15,0.00,40.00,9,4,17,0.00
2013-4-4,65.0,49.0,34.0,18.0,14.3,6.0,49,29,10,0.00,40.00,9,4,18,0.00
2013-4-5,66.0,54.8,43.0,25.0,17.8,8.0,34,24,15,0.00,40.00,13,8,28,0.00
2013-4-6,66.0,52.7,37.0,25.0,20.2,16.0,56,30,17,0.00,40.00,9,5,20,0.00
2013-4-7,66.0,50.9,34.0,22.0,14.2,3.0,47,25,11,0.00,40.00,12,6,27,0.00
2013-4-8,51.0,41.4,30.0,33.0,25.4,6.0,95,58,18,0.00,40.00,18,11,50,0.20
2013-4-9,38.0,31.9,29.0,30.0,27.8,23.0,95,85,71,0.00,40.00,9,4,20,0.31
2013-4-10,44.0,31.9,19.0,23.0,13.7,9.0,80,50,25,0.00,40.00,11,7,26,0.09
2013-4-11,53.0,40.5,29.0,28.0,21.7,14.0,70,49,32,0.00,40.00,9,5,20,0.00
2013-4-12,62.0,43.1,29.0,31.0,19.1,0.0,90,48,9,0.00,40.00,7,3,16,0.00
2013-4-13,64.0,50.7,33.0,19.0,11.9,4.0,31,21,16,0.00,40.00,16,9,36,0.00
2013-4-14,64.0,53.1,42.0,25.0,21.1,15.0,49,30,15,0.00,40.00,18,11,34,0.00
2013-4-15,62.0,51.3,41.0,30.0,22.9,12.0,58,35,14,0.00,40.00,20,16,38,0.00
2013-4-16,56.0,45.4,34.0,28.0,21.7,12.0,58,41,22,0.00,40.00,21,12,41,0.00
2013-4-17,38.0,30.8,24.0,25.0,19.6,12.0,84,64,37,0.00,40.00,9,6,21,0.00
2013-4-18,42.0,30.2,20.0,18.0,7.2,0.0,80,43,17,0.00,40.00,9,5,23,0.00
2013-4-19,56.0,38.3,19.0,5.0,2.9,0.0,46,26,11,0.00,40.00,7,4,15,0.00
2013-4-20,59.0,45.7,33.0,20.0,13.7,4.0,39,28,19,0.00,40.00,8,5,18,0.00
2013-4-21,66.0,50.0,30.0,19.0,15.8,10.0,62,30,14,0.00,40.00,10,6,24,0.00
2013-4-22,72.0,56.8,43.0,15.0,12.0,9.0,26,18,10,0.00,40.00,14,9,34,0.00
2013-4-23,53.0,44.0,36.0,19.0,4.0,-10.0,39,21,7,0.00,40.00,9,6,20,0.00
2013-4-24,61.0,45.9,28.0,-5.0,-8.0,-10.0,21,11,6,0.00,40.00,8,6,16,0.00
2013-4-25,65.0,51.2,36.0,16.0,6.4,-8.0,28,17,7,0.00,40.00,10,6,21,0.00
2013-4-26,67.0,52.0,38.0,17.0,6.5,-3.0,42,19,6,0.00,40.00,8,4,19,0.00
2013-4-27,72.0,53.3,37.0,8.0,3.5,-10.0,24,15,5,0.00,40.00,8,4,17,0.00
2013-4-28,75.0,56.9,39.0,14.0,5.3,-1.0,27,14,6,0.00,40.00,7,3,17,0.00
2013-4-29,78.0,61.9,43.0,20.0,11.6,5.0,34,15,7,0.00,40.00,11,6,27,0.00
2013-4-30,75.0,63.8,51.0,16.0,8.7,1.0,21,12,6,0.00,40.00,19,11,37,0.00
2013-5-1,63.0,52.4,40.0,16.0,1.3,-14.0,28,13,6,0.00,40.00,12,7,23,0.00
2013-5-2,55.0,42.3,31.0,9.0,3.2,-3.0,38,21,11,0.00,40.00,9,6,19,0.00
2013-5-3,68.0,50.3,29.0,3.0,-1.9,-5.0,26,13,5,0.00,40.00,7,4,14,0.00
2013-5-4,72.0,55.2,38.0,6.0,-0.5,-8.0,19,11,4,0.00,40.00,9,5,20,0.00
2013-5-5,64.0,55.0,48.0,23.0,11.9,2.0,36,19,11,0.00,40.00,10,7,23,0.00
2013-5-6,61.0,49.8,43.0,38.0,26.2,18.0,81,42,23,0.00,40.00,11,7,24,0.01
2013-5-7,61.0,48.6,42.0,34.0,30.7,22.0,66,52,22,0.00,40.00,11,7,26,0.03
2013-5-8,57.0,42.7,33.0,36.0,31.0,24.0,97,68,30,0.00,40.00,8,5,17,0.08
2013-5-9,55.0,42.9,32.0,41.0,33.9,26.0,92,72,43,0.00,40.00,7,3,13,0.04
2013-5-10,66.0,49.7,35.0,39.0,29.8,-99.9,96,58,22,0.00,40.00,8,5,21,0.01
2013-5-11,69.0,53.4,38.0,32.0,24.4,-99.9,71,39,15,0.00,40.00,9,5,18,0.00
2013-5-12,76.0,58.4,42.0,28.0,20.6,14.0,44,26,12,0.00,40.00,6,3,14,0.00
2013-5-13,80.0,63.2,47.0,24.0,20.2,16.0,34,21,11,0.00,40.00,7,4,17,0.00
2013-5-14,82.0,66.6,52.0,27.0,20.0,16.0,32,18,9,0.00,40.00,8,4,19,0.00
2013-5-15,77.0,64.2,46.0,25.0,16.8,-4.0,38,19,4,0.00,40.00,17,8,33,0.00
2013-5-16,77.0,61.7,51.0,20.0,0.6,-99.9,27,14,8,0.00,40.00,12,8,25,0.00
2013-5-17,67.0,59.0,50.0,21.0,14.7,-99.9,25,19,13,0.00,40.00,14,9,30,0.00
2013-5-18,66.0,54.3,44.0,31.0,24.2,20.0,45,32,20,0.00,40.00,11,6,28,0.00
2013-5-19,61.0,50.4,40.0,41.0,29.6,24.0,76,47,25,0.00,40.00,9,5,27,0.05
2013-5-20,65.0,49.1,33.0,31.0,25.2,18.0,84,45,17,0.00,40.00,9,4,22,0.04
2013-5-21,73.0,57.3,42.0,29.0,20.7,12.0,51,27,11,0.00,40.00,8,5,17,0.00
2013-5-22,76.0,62.4,45.0,22.0,14.4,9.0,27,16,9,0.00,40.00,17,9,33,0.00
2013-5-23,77.0,63.8,50.0,22.0,13.3,4.0,26,16,6,0.00,40.00,16,10,34,0.00
2013-5-24,75.0,61.8,48.0,20.0,9.9,2.0,24,14,6,0.00,40.00,12,8,25,0.00
2013-5-25,78.0,62.7,43.0,18.0,8.4,-3.0,27,14,4,0.00,40.00,13,8,25,0.00
2013-5-26,75.0,62.0,51.0,15.0,9.3,-2.0,21,13,5,0.00,40.00,11,8,23,0.00
2013-5-27,74.0,61.3,47.0,14.0,10.5,5.0,24,14,7,0.00,40.00,9,6,17,0.00
2013-5-28,71.0,59.3,47.0,37.0,21.9,13.0,57,25,15,0.00,40.00,16,8,33,0.00
2013-5-29,70.0,53.9,35.0,36.0,25.4,13.0,84,40,12,0.00,40.00,14,6,26,0.00
2013-5-30,76.0,60.6,41.0,26.0,18.8,4.0,46,23,6,0.00,40.00,13,6,28,0.00
2013-5-31,77.0,63.4,46.0,22.0,15.2,8.0,32,16,8,0.00,40.00,10,6,19,0.00
2013-6-1,79.0,63.0,49.0,8.0,6.1,3.0,17,11,6,0.00,40.00,10,6,19,0.00
2013-6-2,83.0,68.0,50.0,15.0,9.9,6.0,18,11,6,0.00,40.00,10,6,27,0.00
2013-6-3,84.0,68.8,55.0,29.0,20.6,12.0,29,17,8,0.00,40.00,11,6,25,0.00
2013-6-4,83.0,68.8,50.0,23.0,16.6,8.0,32,15,6,0.00,40.00,11,6,21,0.00
2013-6-5,85.0,70.5,56.0,24.0,19.7,13.0,27,16,7,0.00,40.00,9,4,19,0.00
2013-6-6,85.0,72.1,60.0,23.0,15.5,10.0,22,13,6,0.00,40.00,9,5,19,0.00
2013-6-7,86.0,71.9,54.0,25.0,19.5,15.0,29,15,7,0.00,40.00,9,5,19,0.00
2013-6-8,90.0,75.5,54.0,25.0,21.0,15.0,27,14,8,0.00,40.00,10,5,24,0.00
2013-6-9,93.0,77.9,63.0,22.0,15.9,6.0,18,11,4,0.00,40.00,8,4,16,0.00
2013-6-10,90.0,75.8,63.0,19.0,9.9,-7.0,16,9,3,0.00,40.00,14,8,33,0.00
2013-6-11,87.0,71.6,59.0,26.0,13.0,-7.0,20,11,5,0.00,40.00,14,8,24,0.00
2013-6-12,88.0,72.4,53.0,21.0,17.4,13.0,23,13,7,0.00,40.00,13,5,25,0.00
2013-6-13,85.0,72.7,60.0,29.0,23.3,16.0,24,16,10,0.00,40.00,18,8,36,0.00
2013-6-14,84.0,70.8,51.0,18.0,12.1,4.0,24,12,5,0.00,40.00,13,7,26,0.00
2013-6-15,80.0,67.2,54.0,38.0,26.0,13.0,39,22,14,0.00,40.00,19,6,37,0.00
2013-6-16,85.0,70.4,57.0,40.0,29.1,13.0,53,26,8,0.00,40.00,13,7,27,0.00
2013-6-17,84.0,69.6,51.0,17.0,12.3,0.0,24,12,4,0.00,40.00,11,5,20,0.00
2013-6-18,84.0,70.3,50.0,7.0,1.5,-10.0,14,7,4,0.00,40.00,12,8,27,0.00
2013-6-19,84.0,70.2,55.0,9.0,4.3,-6.0,14,8,3,0.00,40.00,17,11,36,0.00
2013-6-20,83.0,65.4,55.0,15.0,11.1,5.0,19,13,5,0.00,40.00,13,7,26,0.00
2013-6-22,82.0,75.4,66.0,20.0,13.5,8.0,14,10,6,0.00,40.00,11,9,37,0.00
2013-6-23,82.0,69.7,52.0,18.0,12.6,4.0,23,12,5,0.00,40.00,12,7,24,0.00
2013-6-24,78.0,67.6,56.0,24.0,15.3,7.0,20,14,9,0.00,40.00,15,10,28,0.00
2013-6-25,82.0,67.9,57.0,24.0,20.5,14.0,22,17,11,0.00,40.00,11,8,21,0.00
2013-6-26,89.0,73.0,53.0,35.0,24.5,19.0,41,19,9,0.00,40.00,9,5,18,0.00
2013-6-27,94.0,76.7,59.0,36.0,26.7,20.0,37,18,7,0.00,40.00,7,4,16,0.00
2013-6-28,98.0,83.5,69.0,27.0,23.5,19.0,20,12,6,0.00,40.00,11,4,24,0.00
2013-6-29,93.0,79.9,69.0,38.0,32.1,28.0,25,18,10,0.00,40.00,12,6,27,0.06
2013-6-30,96.0,79.7,65.0,40.0,33.6,25.0,37,21,8,0.00,40.00,8,5,27,0.03
2013-7-1,93.0,78.9,67.0,41.0,33.4,24.0,37,21,9,0.00,40.00,8,5,18,0.02
2013-7-2,93.0,77.6,65.0,43.0,33.1,26.0,33,21,11,0.00,40.00,8,4,15,0.00
2013-7-3,93.0,78.4,58.0,41.0,31.7,19.0,48,22,7,0.00,40.00,8,4,19,0.00
2013-7-4,92.0,79.6,67.0,37.0,32.4,29.0,26,19,12,0.00,40.00,9,5,19,0.00
2013-7-5,86.0,74.0,63.0,46.0,41.6,36.0,44,32,22,0.00,40.00,11,6,21,0.00
2013-7-6,84.0,66.6,56.0,55.0,45.1,39.0,95,50,25,0.00,40.00,7,4,15,1.16
2013-7-7,85.0,70.2,55.0,53.0,47.0,37.0,83,48,20,0.00,40.00,9,5,22,0.05
2013-7-8,90.0,72.9,63.0,48.0,42.0,-99.9,57,38,13,0.00,40.00,7,5,20,0.00
2013-7-9,92.0,77.3,64.0,48.0,37.9,24.0,54,28,9,0.00,40.00,7,4,18,0.00
2013-7-10,91.0,78.1,60.0,44.0,27.6,-99.9,36,18,8,0.00,40.00,10,4,20,0.00
2013-7-11,82.0,72.0,64.0,54.0,48.5,45.0,67,45,27,0.00,40.00,11,7,20,0.00
2013-7-12,84.0,67.5,56.0,55.0,51.0,41.0,86,61,23,0.00,40.00,14,6,26,0.02
2013-7-13,84.0,70.5,60.0,53.0,48.0,42.0,75,48,24,0.00,40.00,7,4,15,0.02
2013-7-14,88.0,73.8,60.0,50.0,45.1,38.0,61,39,17,0.00,40.00,8,3,16,0.00
2013-7-15,86.0,70.7,57.0,53.0,49.2,46.0,81,50,27,0.00,40.00,10,4,16,0.09
2013-7-16,75.0,69.4,63.0,59.0,56.1,54.0,78,64,52,0.00,40.00,7,4,13,0.46
2013-7-17,79.0,67.1,59.0,59.0,56.4,54.0,88,70,46,0.00,40.00,6,2,13,0.08
2013-7-18,84.0,69.5,59.0,56.0,52.6,47.0,89,59,28,0.00,40.00,11,4,26,0.44
2013-7-19,83.0,66.0,57.0,60.0,52.0,49.0,87,62,33,0.00,40.00,8,4,14,0.34
2013-7-20,83.0,69.9,56.0,59.0,53.9,47.0,90,59,34,0.00,40.00,7,4,15,0.07
2013-7-21,83.0,68.7,59.0,59.0,50.1,47.0,74,54,32,0.00,40.00,7,3,15,0.20
2013-7-22,80.0,67.9,55.0,56.0,51.8,47.0,92,59,35,0.00,40.00,9,5,24,0.01
2013-7-23,80.0,68.2,61.0,55.0,50.0,46.0,70,53,33,0.00,40.00,9,5,24,0.07
2013-7-24,85.0,72.3,57.0,53.0,48.9,45.0,85,47,25,0.00,40.00,6,3,12,0.04
2013-7-25,89.0,72.1,60.0,56.0,50.9,38.0,87,52,17,0.00,40.00,6,4,16,0.12
2013-7-26,90.0,71.3,59.0,53.0,48.0,36.0,79,49,15,0.00,40.00,10,5,25,0.00
2013-7-27,83.0,66.1,59.0,54.0,50.7,47.0,82,59,33,0.00,40.00,8,5,19,0.00
2013-7-28,73.0,62.2,57.0,60.0,55.5,50.0,95,80,60,0.00,40.00,8,5,17,0.54
2013-7-29,79.0,65.6,51.0,53.0,49.3,45.0,92,60,30,0.00,40.00,11,4,20,0.03
2013-7-30,84.0,70.0,53.0,49.0,41.8,35.0,77,41,18,0.00,40.00,8,3,16,0.00
2013-7-31,89.0,73.7,58.0,46.0,41.4,37.0,51,34,18,0.00,40.00,8,2,17,0.00
2013-8-1,79.0,68.4,60.0,56.0,49.9,45.0,82,54,35,0.00,40.00,11,5,21,0.13
2013-8-2,80.0,68.0,58.0,56.0,52.4,48.0,85,60,35,0.00,40.00,11,6,21,0.09
2013-8-3,84.0,69.9,55.0,51.0,46.6,42.0,81,48,24,0.00,40.00,9,6,21,0.00
2013-8-4,83.0,69.9,60.0,48.0,43.7,36.0,59,41,19,0.00,40.00,7,4,21,0.00
2013-8-5,84.0,71.1,57.0,48.0,41.9,36.0,61,38,18,0.00,40.00,8,4,17,0.00
2013-8-6,71.0,65.6,60.0,51.0,45.7,38.0,65,49,31,0.00,40.00,10,6,20,0.00
2013-8-7,70.0,57.7,52.0,54.0,50.0,45.0,97,78,42,0.00,40.00,8,4,14,0.17
2013-8-8,81.0,63.5,48.0,46.0,39.9,28.0,83,49,17,0.00,40.00,7,3,19,0.01
2013-8-9,81.0,69.8,58.0,35.0,29.0,21.0,41,24,11,0.00,40.00,10,6,22,0.00
2013-8-10,79.0,65.6,57.0,48.0,37.2,24.0,64,36,23,0.00,40.00,10,5,31,0.04
2013-8-11,79.0,62.9,54.0,53.0,45.9,41.0,95,57,27,0.00,40.00,8,6,23,0.20
2013-8-12,80.0,65.0,49.0,53.0,44.7,30.0,90,53,16,0.00,40.00,7,4,14,0.20
2013-8-13,85.0,70.4,55.0,45.0,35.4,24.0,62,33,11,0.00,40.00,9,5,24,0.00
2013-8-14,85.0,69.6,54.0,36.0,32.0,27.0,44,27,13,0.00,40.00,8,3,18,0.00
2013-8-15,87.0,63.8,57.0,44.0,22.7,-99.9,51,30,13,0.00,40.00,11,5,21,0.00
2013-8-16,90.0,70.5,55.0,46.0,39.4,-99.9,65,38,11,0.00,40.00,7,4,21,0.00
2013-8-17,85.0,67.1,56.0,56.0,44.0,-99.9,95,51,23,0.00,40.00,10,4,20,0.15
2013-8-18,86.0,68.3,54.0,53.0,48.7,44.0,91,55,24,0.00,40.00,7,3,15,0.13
2013-8-19,86.0,68.2,57.0,48.0,36.6,-99.9,64,40,21,0.00,40.00,7,3,17,0.00
2013-8-20,88.0,71.1,61.0,49.0,42.3,-99.9,58,39,21,0.00,40.00,7,3,18,0.00
2013-8-21,80.0,65.9,58.0,56.0,46.5,38.0,93,53,24,0.00,40.00,9,4,20,0.15
2013-8-22,79.0,66.8,56.0,55.0,51.9,48.0,95,62,34,0.00,40.00,6,3,11,0.15
2013-8-23,81.0,67.9,57.0,54.0,47.9,38.0,76,52,26,0.00,40.00,14,6,24,0.00
2013-8-24,76.0,63.8,59.0,56.0,46.4,-99.9,84,56,37,0.00,40.00,9,5,18,0.01
2013-8-25,62.0,58.8,57.0,58.0,55.6,52.0,98,90,79,0.00,40.00,7,4,11,0.25
2013-8-26,71.0,59.7,55.0,64.0,57.3,52.0,99,92,78,0.00,40.00,7,5,25,0.57
2013-8-27,70.0,60.3,56.0,60.0,57.0,55.0,100,90,70,0.00,40.00,7,5,15,0.54
2013-8-28,82.0,69.9,58.0,56.0,53.8,51.0,85,60,35,0.00,40.00,9,4,16,0.01
2013-8-29,79.0,67.3,54.0,54.0,50.4,46.0,85,58,31,0.00,40.00,5,4,10,0.01
2013-8-30,80.0,67.0,56.0,60.0,56.3,50.0,96,70,45,0.00,40.00,7,4,13,0.00
2013-8-31,77.0,62.8,56.0,60.0,55.3,-99.9,99,81,51,0.00,40.00,6,2,17,0.20
2013-9-1,79.0,65.2,55.0,61.0,56.5,51.0,100,77,43,0.00,40.00,8,4,15,0.01
2013-9-2,83.0,68.8,57.0,57.0,51.5,40.0,91,59,22,0.00,40.00,8,3,22,0.00
2013-9-3,84.0,70.3,60.0,53.0,48.7,45.0,78,49,26,0.00,40.00,8,4,15,0.00
2013-9-4,86.0,69.1,59.0,61.0,51.2,47.0,94,57,28,0.00,40.00,9,3,17,0.25
2013-9-5,82.0,67.8,55.0,55.0,50.8,47.0,86,57,33,0.00,40.00,9,3,17,0.04
2013-9-6,84.0,67.6,55.0,49.0,45.6,37.0,77,50,19,0.00,40.00,9,3,19,0.00
2013-9-7,84.0,64.3,57.0,60.0,47.5,-99.9,95,60,27,0.00,40.00,10,4,26,0.32
2013-9-8,63.0,58.8,55.0,57.0,54.3,52.0,95,86,71,0.00,40.00,7,3,16,0.21
2013-9-9,62.0,57.3,54.0,56.0,54.8,53.0,99,92,78,0.00,40.00,8,4,12,0.25
2013-9-10,70.0,58.8,53.0,55.0,52.7,48.0,99,82,49,0.00,40.00,7,5,18,0.19
2013-9-11,68.0,57.2,51.0,54.0,51.7,50.0,98,84,56,0.00,40.00,8,5,16,0.10
2013-9-12,74.0,59.9,48.0,55.0,49.2,44.0,99,73,34,0.00,40.00,7,4,16,0.01
2013-9-13,76.0,61.9,49.0,51.0,46.1,39.0,96,62,30,0.00,40.00,7,4,16,0.01
2013-9-14,74.0,58.3,53.0,54.0,48.3,-99.9,88,73,43,0.00,40.00,7,3,14,0.19
2013-9-15,70.0,59.2,52.0,54.0,51.0,48.0,95,76,50,0.00,40.00,6,4,11,0.06
2013-9-16,77.0,62.8,51.0,52.0,49.5,47.0,93,65,41,0.00,40.00,6,4,12,0.00
2013-9-17,79.0,65.5,56.0,52.0,48.7,45.0,77,56,31,0.00,40.00,12,7,22,0.00
2013-9-18,63.0,59.4,55.0,50.0,44.4,28.0,82,60,33,0.00,40.00,8,5,15,0.00
2013-9-19,77.0,62.9,50.0,34.0,29.4,25.0,48,30,17,0.00,40.00,7,4,18,0.00
2013-9-20,79.0,65.4,55.0,34.0,28.3,21.0,35,25,17,0.00,40.00,10,6,24,0.00
2013-9-21,74.0,63.8,54.0,43.0,36.0,-99.9,51,37,26,0.00,40.00,13,7,27,0.00
2013-9-22,68.0,57.7,47.0,48.0,35.9,13.0,74,48,14,0.00,40.00,22,12,45,0.00
2013-9-23,70.0,53.2,36.0,34.0,26.5,12.0,80,41,12,0.00,40.00,7,4,13,0.00
2013-9-24,74.0,57.4,41.0,27.0,22.7,17.0,46,29,12,0.00,40.00,8,5,17,0.00
2013-9-25,72.0,60.0,49.0,30.0,25.8,20.0,44,28,14,0.00,40.00,21,13,37,0.00
2013-9-26,69.0,56.5,48.0,36.0,29.0,21.0,60,38,16,0.00,40.00,18,13,39,0.00
2013-9-27,55.0,44.1,35.0,34.0,22.9,13.0,80,47,19,0.00,40.00,15,6,28,0.03
2013-9-28,65.0,46.4,33.0,21.0,14.3,-99.9,58,33,11,0.00,40.00,6,4,13,0.01
2013-9-29,71.0,52.8,39.0,21.0,16.2,12.0,39,25,12,0.00,40.00,9,4,19,0.00
2013-9-30,74.0,56.1,40.0,22.0,18.8,15.0,39,25,12,0.00,40.00,7,4,16,0.00
2013-10-1,70.0,61.8,57.0,18.0,15.8,13.0,21,17,11,0.00,40.00,9,6,17,0.00
2013-10-2,70.0,57.8,47.0,28.0,22.2,18.0,38,26,14,0.00,40.00,12,8,21,0.00
2013-10-3,67.0,55.4,41.0,37.0,26.8,19.0,52,35,20,0.00,40.00,19,12,39,0.00
2013-10-4,50.0,40.0,30.0,23.0,13.8,8.0,55,36,19,0.00,40.00,8,6,18,0.00
2013-10-5,56.0,40.5,29.0,22.0,16.4,3.0,68,40,20,0.00,40.00,7,4,17,0.00
2013-10-6,67.0,50.0,36.0,22.0,16.2,3.0,41,27,17,0.00,40.00,6,4,13,0.00
2013-10-7,71.0,54.7,39.0,25.0,17.9,10.0,47,26,11,0.00,40.00,8,5,16,0.00
2013-10-8,67.0,56.8,47.0,25.0,18.5,15.0,28,23,14,0.00,40.00,15,9,28,0.00
2013-10-9,61.0,52.0,44.0,26.0,20.5,11.0,46,30,15,0.00,40.00,14,9,32,0.00
2013-10-10,50.0,39.0,33.0,36.0,32.9,29.0,98,81,44,0.00,40.00,15,9,31,0.44
2013-10-11,54.0,40.0,31.0,38.0,33.2,30.0,99,79,49,0.00,40.00,8,4,14,0.01
2013-10-12,61.0,44.1,31.0,32.0,26.4,-99.9,93,58,20,0.00,40.00,7,4,18,0.01
2013-10-13,60.0,49.8,41.0,32.0,27.5,24.0,60,43,28,0.00,40.00,13,8,25,0.00
2013-10-14,56.0,42.5,33.0,31.0,26.1,20.0,84,56,27,0.00,40.00,7,4,18,0.00
2013-10-15,51.0,40.4,31.0,28.0,24.8,22.0,69,55,36,0.00,40.00,8,5,16,0.00
2013-10-16,54.0,39.3,27.0,24.0,18.4,12.0,75,47,20,0.00,40.00,6,3,12,0.00
2013-10-17,59.0,41.2,27.0,19.0,13.4,8.0,56,35,14,0.00,40.00,7,3,15,0.00
2013-10-18,55.0,43.4,34.0,17.0,14.8,11.0,46,32,20,0.00,40.00,8,4,18,0.00
2013-10-19,62.0,42.9,29.0,18.0,10.9,-99.9,54,31,13,0.00,40.00,6,2,15,0.00
2013-10-20,64.0,46.7,31.0,15.0,10.9,8.0,45,26,11,0.00,40.00,7,3,13,0.00
2013-10-21,61.0,47.7,35.0,22.0,17.6,10.0,49,31,20,0.00,40.00,7,4,13,0.00
2013-10-22,66.0,47.5,33.0,21.0,17.8,15.0,50,33,17,0.00,40.00,5,4,10,0.00
2013-10-23,68.0,50.6,39.0,22.0,17.4,15.0,38,28,14,0.00,40.00,6,5,14,0.00
2013-10-24,63.0,51.5,45.0,33.0,23.0,13.0,55,33,23,0.00,40.00,9,6,19,0.00
2013-10-25,60.0,46.8,38.0,40.0,33.5,29.0,81,61,37,0.00,40.00,6,4,12,0.04
2013-10-26,44.0,43.3,42.0,30.0,29.3,29.0,60,58,56,0.00,40.00,4,3,6,0.04